CDT,Max TemperatureF,Mean TemperatureF,Min TemperatureF,Max Dew PointF,MeanDew PointF,Min DewpointF,Max Humidity, Mean Humidity, Min Humidity, Max Sea Level PressureIn, Mean Sea Level PressureIn, Min Sea Level PressureIn, Max VisibilityMiles, Mean VisibilityMiles, Min VisibilityMiles, Max Wind SpeedMPH, Mean Wind SpeedMPH, Max Gust SpeedMPH,PrecipitationIn, CloudCover, Events, WindDirDegrees
2013-4-1,73,62,50,55,50,43,100,72,33,30.10,30.03,29.93,10,8,0,8,2,,0.00,3,Fog,330
2013-4-2,64,54,44,45,40,32,93,60,39,30.20,30.14,30.09,10,10,10,13,4,18,0.00,0,,29
2013-4-3,48,45,42,45,37,32,100,76,54,30.15,30.12,30.07,10,9,4,14,9,21,0.43,7,Rain,31
2013-4-4,51,48,44,50,47,45,100,97,93,30.06,29.98,29.93,10,4,2,9,5,,0.19,8,Rain,8
2013-4-5,64,53,42,46,43,36,100,78,34,30.16,30.09,30.00,10,10,3,12,4,,0.01,4,,350
2013-4-6,75,55,35,46,41,36,100,65,27,30.15,30.08,30.00,10,9,5,14,2,17,0.00,1,,164
2013-4-7,73,58,44,54,50,45,100,70,44,30.12,30.05,29.99,10,10,7,12,4,,0.00,2,,181
2013-4-8,78,64,51,61,56,50,100,74,44,30.07,29.99,29.94,10,10,7,15,6,22,0.00,2,,158
2013-4-9,80,71,62,68,64,59,94,78,58,30.07,30.00,29.96,10,10,7,14,8,20,0.00,4,,147
2013-4-10,86,73,60,63,61,59,94,71,45,30.00,29.93,29.81,10,10,7,14,7,21,0.00,1,,157
2013-4-11,71,60,46,68,58,45,100,88,73,29.82,29.74,29.62,10,9,2,15,9,22,0.79,7,Rain-Thunderstorm,213
2013-4-12,69,53,37,48,42,37,100,72,31,30.01,29.93,29.84,10,9,2,9,3,17,0.00,0,,286
2013-4-13,73,57,41,54,46,41,100,71,36,30.09,30.01,29.95,10,10,7,7,1,,0.00,0,,29
2013-4-14,62,56,51,55,52,46,94,82,63,29.96,29.87,29.80,10,10,7,21,7,36,0.05,5,Rain,124
2013-4-15,77,64,50,63,59,50,100,83,61,30.00,29.94,29.85,10,9,1,10,5,17,0.00,4,,133
2013-4-16,82,74,66,68,67,63,94,82,58,30.13,30.06,29.99,10,10,7,13,6,18,0.00,5,,151
2013-4-17,82,72,62,68,66,63,100,80,54,30.14,30.05,29.96,10,8,2,15,4,22,0.00,1,,146
2013-4-18,80,68,57,68,63,55,94,76,54,29.96,29.86,29.68,10,10,10,18,9,29,0.26,2,Rain-Thunderstorm,156
2013-4-19,57,49,41,54,39,34,100,72,41,30.18,30.03,29.81,10,10,3,12,7,20,0.56,5,Rain-Thunderstorm,295
2013-4-20,66,50,33,45,37,32,100,69,32,30.28,30.22,30.18,10,10,5,12,1,18,0.00,0,,9
2013-4-21,69,56,42,46,40,34,100,59,28,30.31,30.23,30.17,10,10,10,13,4,17,0.00,0,,66
2013-4-22,73,57,41,54,48,41,100,71,38,30.22,30.15,30.06,10,10,7,14,3,16,0.00,0,,127
2013-4-23,75,64,53,61,57,54,100,79,53,30.12,30.06,29.98,10,10,5,13,5,16,0.00,4,,157
2013-4-24,64,55,46,61,52,41,100,86,76,30.28,30.11,29.97,10,9,2,12,7,21,0.79,8,Rain-Thunderstorm,292
2013-4-25,66,52,39,46,40,36,100,68,34,30.39,30.32,30.27,10,10,5,13,5,18,0.00,1,,23
2013-4-26,73,57,41,54,44,37,100,62,29,30.35,30.27,30.20,10,10,10,9,3,,0.00,1,,100
2013-4-27,80,70,59,66,60,52,88,73,54,30.20,30.09,29.99,10,10,7,12,4,20,0.00,5,Thunderstorm,191
2013-4-28,68,62,55,64,61,55,100,91,83,30.01,29.97,29.94,10,8,0,9,4,,0.98,5,Fog-Rain-Thunderstorm,205
2013-4-29,77,64,51,61,53,39,100,79,27,30.05,29.98,29.92,10,7,0,5,0,,0.01,4,Fog,146
2013-4-30,80,64,48,63,57,48,100,75,44,29.99,29.95,29.91,10,9,5,9,2,,0.00,1,,115